Location: Sungai Kamana Besar
(2.6333°N, 113.4333°E)
Time: 12:46:47
(UTC+00:00)

Cosmos 1302 Rocket - Visible Passes

Search period start: 26 September 2022 00:00
Search period end: 06 October 2022 00:00
Orbit: 755 x 776 km, 74.0° (Epoch: 25 September)

Date Brightness Start Highest point End Pass type
(mag) Time Alt. Az. Time Alt. Az. Time Alt. Az.
26 Sep 6.0 21:07:36 10° SSE 21:12:08 30° ESE 21:16:39 10° NE visible
27 Sep 7.0 20:31:46 10° SE 20:34:30 14° ESE 20:37:16 10° ENE visible
28 Sep 4.0 21:33:24 10° SSW 21:38:35 68° WNW 21:43:47 10° N visible
29 Sep 4.7 20:55:50 10° S 21:00:57 57° ESE 21:06:06 10° NNE visible
30 Sep 6.0 20:18:58 10° SSE 20:23:21 27° ESE 20:27:43 10° NE visible
01 Oct 6.9 19:43:29 10° SE 19:45:43 13° ESE 19:47:59 10° ENE visible
01 Oct 4.5 21:22:40 10° SW 21:27:25 36° WNW 21:32:12 10° NNW visible
02 Oct 3.8 20:44:34 10° SSW 20:49:48 76° WNW 20:55:03 10° N visible
03 Oct 4.7 20:10:53 41° SE 20:12:11 51° ESE 20:17:15 10° NNE visible
04 Oct 6.4 19:37:03 17° ENE 19:37:03 17° ENE 19:38:46 10° NE visible
04 Oct 5.4 21:17:26 18° WNW 21:17:26 18° WNW 21:20:00 10° NNW visible
05 Oct 6.0 20:42:37 15° NNW 20:42:37 15° NNW 20:43:33 10° N visible
